| time (UTC) | temp F | wind direction | speed MPH | gust MPH | rain 1hr in | rain 24hr in | rain mn in | humidity % | barometer mb |
| 20260905174502 | 61 | 252 | 8.0 | 16.0 | 0.00 | 0.00 | 0.00 | 77 | 1013.8 |
| 20260905173051 | 59 | 262 | 7.0 | 16.0 | 0.00 | 0.00 | 0.00 | 79 | 1014.0 |
| 20260905171543 | 59 | 249 | 8.0 | 14.0 | 0.00 | 0.00 | 0.00 | 78 | 1014.0 |
| 20260905170038 | 58 | 256 | 8.0 | 16.0 | 0.00 | 0.00 | 0.00 | 80 | 1013.6 |
| 20260905164634 | 58 | 255 | 7.0 | 14.0 | 0.00 | 0.00 | 0.00 | 81 | 1013.6 |
| 20260905163033 | 58 | 286 | 7.0 | 17.0 | 0.00 | 0.00 | 0.00 | 79 | 1013.5 |
| 20260905161525 | 58 | 268 | 6.0 | 11.0 | 0.00 | 0.00 | 0.00 | 81 | 1013.4 |
| 20260905160020 | 58 | 270 | 4.0 | 9.0 | 0.00 | 0.00 | 0.00 | 78 | 1013.5 |
| 20260905154516 | 56 | 258 | 3.0 | 8.0 | 0.00 | 0.00 | 0.00 | 82 | 1013.6 |
| 20260905153100 | 56 | 283 | 2.0 | 6.0 | 0.00 | 0.00 | 0.00 | 83 | 1013.8 |
| 20260905151602 | 56 | 245 | 0.0 | 1.0 | 0.00 | 0.00 | 0.00 | 82 | 1014.0 |
| 20260905150051 | 55 | 245 | 1.0 | 5.0 | 0.00 | 0.00 | 0.00 | 84 | 1014.0 |
| 20260905144547 | 55 | 305 | 2.0 | 6.0 | 0.00 | 0.00 | 0.00 | 83 | 1013.8 |
| 20260905143045 | 56 | 200 | 0.0 | 0.0 | 0.00 | 0.00 | 0.00 | 84 | 1013.8 |
| 20260905141541 | 0 | 0.0 | 0.0 | 0.00 | 0.00 | 0.00 | 1013.5 | ||
| 20260905140037 | 0 | 0.0 | 0.0 | 0.00 | 0.00 | 0.00 | 1013.2 | ||
| 20260905134536 | 0 | 0.0 | 0.0 | 0.00 | 0.00 | 0.00 | 1013.2 | ||
| 20260905133018 | 0 | 0.0 | 0.0 | 0.00 | 0.00 | 0.00 | 1013.0 | ||
| 20260905131514 | 0 | 0.0 | 0.0 | 0.00 | 0.00 | 0.00 | 1012.7 | ||
| 20260905130008 | 0 | 0.0 | 0.0 | 0.00 | 0.00 | 0.00 | 1012.6 | ||
| 20260905124505 | 0 | 0.0 | 0.0 | 0.00 | 0.00 | 0.00 | 1012.4 | ||
| 20260905123100 | 0 | 0.0 | 0.0 | 0.00 | 0.00 | 0.00 | 1012.3 | ||
| 20260905121558 | 0 | 0.0 | 0.0 | 0.00 | 0.00 | 0.00 | 1012.2 | ||
| 20260905120052 | 55 | 306 | 3.0 | 7.0 | 0.00 | 0.00 | 0.00 | 77 | 1012.2 |
| 20260905114551 | 56 | 284 | 1.0 | 5.0 | 0.00 | 0.00 | 0.00 | 77 | 1012.3 |
| 20260905113050 | 56 | 264 | 3.0 | 7.0 | 0.00 | 0.00 | 0.00 | 77 | 1012.3 |
| 20260905111602 | 57 | 337 | 4.0 | 8.0 | 0.00 | 0.00 | 0.00 | 74 | 1012.2 |
| 20260905110031 | 58 | 280 | 1.0 | 4.0 | 0.00 | 0.00 | 0.00 | 71 | 1012.2 |
| 20260905104533 | 58 | 255 | 2.0 | 6.0 | 0.00 | 0.00 | 0.00 | 69 | 1012.1 |
| 20260905101522 | 58 | 287 | 2.0 | 6.0 | 0.00 | 0.00 | 0.00 | 68 | 1011.9 |
| 20260905100018 | 59 | 259 | 3.0 | 8.0 | 0.00 | 0.00 | 0.00 | 65 | 1012.0 |
| 20260905094514 | 59 | 262 | 6.0 | 15.0 | 0.00 | 0.00 | 0.00 | 65 | 1012.0 |
| 20260905093013 | 58 | 269 | 4.0 | 10.0 | 0.00 | 0.00 | 0.00 | 66 | 1012.0 |
| 20260905091512 | 58 | 264 | 10.0 | 17.0 | 0.00 | 0.00 | 0.00 | 66 | 1012.0 |
| 20260905090011 | 58 | 237 | 10.0 | 16.0 | 0.00 | 0.00 | 0.00 | 66 | 1012.0 |
| 20260905084513 | 58 | 270 | 9.0 | 15.0 | 0.00 | 0.00 | 0.00 | 66 | 1011.8 |
| 20260905083108 | 55 | 62 | 2.0 | 5.0 | 0.00 | 0.00 | 0.00 | 75 | 1011.9 |
| 20260905081550 | 55 | 86 | 1.0 | 4.0 | 0.00 | 0.00 | 0.00 | 76 | 1011.5 |
| 20260905080049 | 54 | 88 | 1.0 | 3.0 | 0.00 | 0.00 | 0.00 | 78 | 1011.5 |
| 20260905074534 | 55 | 190 | 0.0 | 3.0 | 0.00 | 0.00 | 0.00 | 76 | 1011.4 |
| 20260905073037 | 56 | 67 | 0.0 | 4.0 | 0.00 | 0.00 | 0.00 | 74 | 1011.3 |
| 20260905071633 | 58 | 287 | 1.0 | 9.0 | 0.00 | 0.00 | 0.00 | 69 | 1011.3 |
| 20260905070059 | 56 | 337 | 1.0 | 6.0 | 0.00 | 0.00 | 0.00 | 74 | 1011.1 |
| 20260905064530 | 56 | 320 | 1.0 | 8.0 | 0.00 | 0.00 | 0.00 | 74 | 1011.0 |
| 20260905063029 | 55 | 341 | 3.0 | 9.0 | 0.00 | 0.00 | 0.00 | 75 | 1011.0 |
| 20260905061525 | 58 | 282 | 1.0 | 8.0 | 0.00 | 0.00 | 0.00 | 68 | 1010.8 |
| 20260905060024 | 58 | 264 | 7.0 | 14.0 | 0.00 | 0.00 | 0.00 | 68 | 1010.7 |
| 20260905054522 | 58 | 263 | 6.0 | 19.0 | 0.00 | 0.00 | 0.00 | 67 | 1010.5 |
| 20260905053007 | 59 | 287 | 3.0 | 11.0 | 0.00 | 0.00 | 0.00 | 65 | 1010.5 |
| 20260905051505 | 59 | 227 | 8.0 | 16.0 | 0.00 | 0.00 | 0.00 | 64 | 1010.6 |
| 20260905050003 | 60 | 254 | 14.0 | 19.0 | 0.00 | 0.00 | 0.00 | 63 | 1010.5 |
| 20260905044600 | 60 | 281 | 6.0 | 16.0 | 0.00 | 0.00 | 0.00 | 63 | 1010.5 |
| 20260905043056 | 61 | 255 | 7.0 | 14.0 | 0.00 | 0.00 | 0.00 | 61 | 1010.5 |
| 20260905040055 | 62 | 266 | 8.0 | 16.0 | 0.00 | 0.00 | 0.00 | 60 | 1010.5 |
| 20260905034540 | 62 | 277 | 8.0 | 15.0 | 0.00 | 0.00 | 0.00 | 60 | 1010.4 |
| 20260905033048 | 62 | 258 | 7.0 | 13.0 | 0.00 | 0.00 | 0.00 | 59 | 1010.4 |
| 20260905031539 | 62 | 258 | 11.0 | 19.0 | 0.00 | 0.00 | 0.00 | 58 | 1010.3 |
| 20260905030034 | 63 | 256 | 11.0 | 20.0 | 0.00 | 0.00 | 0.00 | 57 | 1010.1 |
| 20260905024526 | 64 | 266 | 9.0 | 15.0 | 0.00 | 0.00 | 0.00 | 54 | 1009.9 |
| 20260905023029 | 67 | 243 | 1.0 | 1.0 | 0.00 | 0.00 | 0.00 | 43 | 1009.8 |
| 20260905021520 | 67 | 46 | 0.0 | 1.0 | 0.00 | 0.00 | 0.00 | 43 | 1009.7 |
| 20260905020021 | 69 | 52 | 1.0 | 4.0 | 0.00 | 0.00 | 0.00 | 40 | 1009.7 |
| 20260905014502 | 69 | 41 | 3.0 | 4.0 | 0.00 | 0.00 | 0.00 | 39 | 1009.6 |
| 20260905013102 | 70 | 57 | 4.0 | 5.0 | 0.00 | 0.00 | 0.00 | 38 | 1009.4 |
| 20260905011606 | 71 | 71 | 3.0 | 5.0 | 0.00 | 0.00 | 0.00 | 36 | 1009.4 |
| 20260905010108 | 70 | 107 | 3.0 | 5.0 | 0.00 | 0.00 | 0.00 | 37 | 1009.3 |
| 20260905004555 | 70 | 81 | 2.0 | 6.0 | 0.00 | 0.00 | 0.00 | 39 | 1009.3 |
| 20260905003054 | 71 | 43 | 4.0 | 6.0 | 0.00 | 0.00 | 0.00 | 37 | 1009.2 |
| 20260905001554 | 71 | 85 | 3.0 | 6.0 | 0.00 | 0.00 | 0.00 | 38 | 1009.1 |
| 20260905000054 | 71 | 90 | 6.0 | 9.0 | 0.00 | 0.00 | 0.00 | 36 | 1009.1 |
| 20260904234543 | 70 | 112 | 5.0 | 8.0 | 0.00 | 0.00 | 0.00 | 37 | 1009.1 |
| 20260904233033 | 70 | 85 | 6.0 | 10.0 | 0.00 | 0.00 | 0.00 | 36 | 1009.2 |
| 20260904231519 | 71 | 102 | 7.0 | 9.0 | 0.00 | 0.00 | 0.00 | 38 | 1009.1 |
| 20260904230017 | 71 | 17 | 5.0 | 11.0 | 0.00 | 0.00 | 0.00 | 38 | 1009.2 |
| 20260904224514 | 71 | 110 | 10.0 | 15.0 | 0.00 | 0.00 | 0.00 | 40 | 1009.2 |
| 20260904223010 | 70 | 59 | 6.0 | 10.0 | 0.00 | 0.00 | 0.00 | 40 | 1009.2 |
| 20260904221505 | 70 | 15 | 5.0 | 12.0 | 0.00 | 0.00 | 0.00 | 39 | 1009.3 |
| 20260904220002 | 70 | 106 | 3.0 | 8.0 | 0.00 | 0.00 | 0.00 | 39 | 1009.3 |
| 20260904214558 | 70 | 102 | 6.0 | 12.0 | 0.00 | 0.00 | 0.00 | 39 | 1009.5 |
| 20260904213053 | 69 | 69 | 5.0 | 13.0 | 0.00 | 0.00 | 0.00 | 41 | 1009.4 |
| 20260904211536 | 69 | 52 | 3.0 | 10.0 | 0.00 | 0.00 | 0.00 | 43 | 1009.4 |
| 20260904210132 | 70 | 99 | 5.0 | 8.0 | 0.00 | 0.00 | 0.00 | 43 | 1009.6 |
| 20260904204529 | 68 | 81 | 5.0 | 11.0 | 0.00 | 0.00 | 0.00 | 45 | 1009.6 |
| 20260904203032 | 68 | 112 | 4.0 | 8.0 | 0.00 | 0.00 | 0.00 | 45 | 1009.7 |
| 20260904201518 | 68 | 41 | 3.0 | 9.0 | 0.00 | 0.00 | 0.00 | 45 | 1009.8 |
| 20260904200016 | 68 | 68 | 1.0 | 7.0 | 0.00 | 0.00 | 0.00 | 46 | 1009.7 |
| 20260904194512 | 66 | 45 | 6.0 | 9.0 | 0.00 | 0.00 | 0.00 | 46 | 1009.8 |
| 20260904193008 | 66 | 77 | 4.0 | 6.0 | 0.00 | 0.00 | 0.00 | 49 | 1009.9 |
| 20260904191544 | 66 | 50 | 5.0 | 11.0 | 0.00 | 0.00 | 0.00 | 52 | 1010.1 |
| 20260904190040 | 65 | 69 | 1.0 | 8.0 | 0.00 | 0.00 | 0.00 | 51 | 1010.3 |
| 20260904184524 | 63 | 69 | 1.0 | 5.0 | 0.00 | 0.00 | 0.00 | 54 | 1010.5 |
| 20260904183019 | 63 | 80 | 4.0 | 9.0 | 0.00 | 0.00 | 0.00 | 59 | 1010.6 |
| 20260904181516 | 62 | 69 | 4.0 | 8.0 | 0.00 | 0.00 | 0.00 | 58 | 1010.3 |
| 20260904180011 | 61 | 123 | 4.0 | 8.0 | 0.00 | 0.00 | 0.00 | 60 | 1010.1 |